Temp
61 61 62 61 61 62 62 62 61 61 61 63 63 62 61 61 61 60 58 56 55 55 54 53 51 50 49 49 49 49 48 47 47 46 45 45 46 46 46 46 46 46 46 47 47 47 46 46 46 47 48 48 50 52 54 56 57 57 58 59 58 59 60 60 60 60 60 60 61
61 61 60 59 59 61 61 61 61 61 61 62 63 62 61 61 61 60 59 58 57 55 54 52 51 49 49 49 49 48 48 47 46 45 45 45 45 45 45 45 45 45 45 45 45 45 44 44 44 44 45 44 45 46 49 53 55 55 56 56 56 57 58 58 57 58 59 61 61
60 60 60 61 62 62 62 61 62 63 63 63 63 63 62 62 62 61 60 60 59 57 56 54 51 50 49 49 50 49 49 48 48 47 46 46 46 46 46 45 45 44 44 44 44 44 44 44 43 43 43 43 43 44 45 48 50 51 52 52 54 55 55 55 56 57 58 59 59
59 59 60 61 61 62 62 62 62 62 63 63 63 63 63 63 62 61 60 60 59 58 56 54 52 50 50 51 51 51 51 50 50 49 48 48 47 47 46 46 45 45 44 44 44 43 43 43 43 43 43 43 43 43 44 45 46 47 48 49 50 52 53 53 55 56 56 57 56
59 59 59 60 61 61 61 61 61 61 61 62 62 62 62 62 61 60 59 57 56 56 56 54 52 50 50 51 51 51 50 50 49 49 50 48 48 47 47 46 46 45 45 44 43 43 43 43 42 42 42 43 43 43 43 45 45 46 46 46 47 48 49 51 52 54 54 55 54
58 59 59 59 60 60 61 61 61 60 60 60 60 60 60 61 62 60 58 56 55 54 54 52 50 49 50 51 50 50 49 49 49 50 49 48 47 47 46 46 45 45 44 44 43 43 43 42 41 41 42 42 42 42 43 44 44 44 44 44 45 46 46 47 49 50 51 51 52
59 59 59 59 59 59 60 61 60 60 59 58 58 58 58 59 60 60 58 56 54 53 51 49 49 49 49 50 49 49 49 49 49 49 49 48 48 47 46 46 45 45 44 44 43 43 43 43 41 41 41 41 41 41 42 42 42 42 42 42 43 44 45 45 46 47 47 48 49
60 60 60 60 59 59 60 60 60 59 58 58 58 58 58 58 59 59 58 56 54 52 51 50 50 50 50 50 49 48 48 48 48 48 48 48 47 47 46 46 46 45 44 44 44 44 44 43 42 42 41 41 40 41 41 42 41 41 41 41 42 44 45 45 46 47 47 48 48
60 60 61 61 60 60 60 60 60 59 58 57 57 57 58 57 58 58 57 55 53 52 51 50 50 50 51 50 49 48 48 47 48 48 47 48 48 47 47 47 46 45 45 45 45 45 44 44 44 43 42 41 40 40 41 41 41 41 40 40 41 42 43 44 46 48 48 49 48
60 60 61 61 61 61 61 61 60 60 59 57 56 56 55 53 55 56 56 54 52 51 51 50 50 49 49 49 49 48 48 48 48 48 48 48 47 47 47 47 46 46 46 46 45 44 44 43 43 43 43 42 41 41 41 41 40 40 40 40 40 41 42 43 44 46 48 49 48
59 60 60 61 61 61 61 61 60 60 59 57 56 55 54 52 53 54 55 53 51 51 50 50 50 49 49 49 49 49 49 49 49 49 48 47 47 47 47 47 47 47 47 46 46 45 44 43 43 43 42 42 41 41 41 40 40 39 39 39 40 41 41 41 42 44 45 47 47
58 59 60 60 61 61 61 60 60 60 58 57 56 55 54 53 53 53 54 53 51 51 51 51 51 50 50 49 50 49 49 49 49 49 48 48 48 48 48 48 48 48 47 47 47 46 46 45 44 43 42 42 42 41 41 41 40 40 39 39 40 40 40 41 42 42 43 44 45
58 58 59 60 60 60 60 60 60 59 58 56 55 54 53 52 52 53 53 52 51 51 51 51 51 51 51 50 51 50 49 49 49 49 48 48 48 49 48 48 48 48 48 48 48 48 47 46 45 44 43 42 42 42 42 42 41 40 40 39 40 40 40 41 41 42 43 43 44
57 58 58 59 59 59 59 60 60 59 58 56 55 54 53 52 52 52 52 51 51 51 50 50 50 50 50 51 51 50 50 50 49 49 49 49 49 49 49 48 48 48 48 48 49 49 49 48 47 45 44 43 43 43 43 43 42 41 41 40 40 40 40 41 42 42 42 43 43
56 57 57 58 58 58 58 59 59 58 57 55 54 53 53 52 51 51 51 50 50 50 50 49 48 49 50 51 50 50 50 51 50 49 49 49 49 50 50 49 49 48 48 48 49 50 50 49 48 47 46 45 44 44 44 43 43 42 42 42 41 41 41 41 42 42 42 42 42
54 55 56 56 56 57 57 58 58 58 57 55 54 53 52 51 51 51 50 50 49 49 49 48 48 49 49 49 50 50 51 51 50 50 49 49 50 50 50 50 49 49 48 49 49 50 50 50 49 48 47 46 45 45 45 44 44 43 43 43 42 42 42 42 42 42 43 42 43
53 53 54 54 54 55 55 56 57 57 57 56 55 54 52 51 51 50 49 49 48 48 48 48 48 48 48 48 49 49 50 51 50 50 50 50 50 51 51 50 50 49 49 49 49 49 49 49 49 48 47 46 46 45 45 44 44 44 43 43 43 43 43 43 43 43 43 43 43
52 52 53 53 53 53 53 54 55 56 56 55 54 54 52 51 51 50 49 49 48 48 47 48 48 48 48 48 48 49 50 51 51 51 51 51 51 51 51 50 50 50 49 49 49 48 48 48 48 48 47 46 46 46 46 45 45 45 44 44 44 44 44 44 44 45 45 45 45
51 52 52 52 52 52 52 52 53 54 54 54 53 53 52 51 51 50 49 49 48 48 48 47 48 48 48 48 49 49 50 51 52 52 52 52 52 52 51 50 50 50 49 49 49 48 48 48 48 47 47 47 47 47 46 46 46 45 45 45 45 45 45 45 46 46 46 46 46
50 50 51 51 50 50 51 51 52 53 53 53 52 52 52 51 51 50 49 49 49 49 49 48 48 48 48 49 49 50 50 51 52 52 52 53 53 52 51 50 50 49 49 49 49 49 49 48 48 48 48 47 47 47 47 47 46 46 46 46 46 46 46 46 47 47 47 47 47
49 49 49 49 49 49 49 49 50 51 52 52 51 51 51 51 50 50 50 49 49 49 48 48 48 48 48 49 49 50 50 51 52 52 52 53 52 52 52 51 50 50 50 50 50 50 50 49 48 48 48 48 48 47 47 47 46 46 46 46 46 46 47 47 47 47 47 47 47
48 48 48 47 47 47 47 47 48 49 49 50 51 51 50 50 50 50 49 49 49 48 48 48 48 48 48 49 49 50 50 51 52 52 52 52 52 52 52 51 51 51 51 51 51 51 50 49 49 48 48 48 48 48 47 47 46 46 46 46 46 47 47 47 47 47 47 47 47
47 46 46 45 45 45 45 46 46 47 48 49 50 50 50 50 50 49 49 49 48 48 48 48 48 48 49 49 49 50 50 51 52 52 53 53 52 52 52 52 52 52 51 52 51 51 50 49 49 49 48 48 48 48 47 47 46 46 46 46 46 47 47 47 47 47 47 47 47
45 44 44 43 44 44 45 45 45 46 47 48 49 50 50 50 50 49 49 48 48 48 48 48 48 49 49 49 50 50 51 51 51 52 52 52 52 52 53 53 53 52 52 51 50 49 48 48 49 49 49 48 48 48 47 46 46 46 46 46 46 46 46 47 47 47 47 46 46
44 43 43 43 43 43 44 44 45 46 47 48 49 50 50 50 50 49 48 48 48 48 48 48 48 49 49 49 49 50 51 51 52 52 52 52 52 53 53 54 54 53 51 49 46 45 45 46 48 49 49 49 48 47 46 46 46 46 45 45 45 45 45 45 46 46 46 46 46
43 43 42 42 43 43 43 44 45 46 47 48 49 50 50 50 50 49 48 47 47 48 48 48 48 48 48 48 49 49 50 51 52 53 53 52 53 53 54 55 54 52 50 47 44 43 43 44 45 46 48 49 48 47 46 46 45 45 45 45 44 44 44 44 44 44 45 45 44
42 42 42 42 43 43 43 44 45 45 46 48 49 50 50 51 50 49 48 47 47 48 48 48 48 47 46 48 48 49 49 51 53 54 54 53 54 54 54 55 53 51 49 45 42 42 42 43 44 44 46 48 48 47 46 45 45 45 45 44 44 44 43 43 43 43 43 43 43
41 41 42 42 42 43 43 44 45 45 46 47 49 49 50 51 50 49 48 48 48 47 47 47 47 47 47 47 48 48 49 51 53 54 54 54 54 54 54 54 52 50 46 43 42 42 42 43 43 43 44 45 46 46 45 45 45 45 45 44 44 44 44 44 43 43 43 42 42
41 41 41 41 42 42 43 44 44 45 46 47 48 49 50 50 49 49 48 48 47 47 47 47 47 47 47 46 47 48 49 51 54 55 55 55 54 54 54 54 52 48 44 41 41 42 42 42 42 42 43 44 45 46 46 46 46 46 45 45 45 45 45 44 44 43 43 43 42
41 41 41 40 41 42 42 43 44 45 45 46 47 48 49 50 50 49 48 48 47 47 47 47 46 46 46 46 46 46 48 50 54 55 55 54 54 54 54 53 51 47 43 40 41 42 42 42 42 41 42 42 44 46 47 47 47 46 46 46 46 46 45 45 44 44 44 43 43
41 41 40 40 40 41 42 43 44 44 45 45 46 48 49 49 49 49 49 48 47 47 46 46 46 45 45 46 46 46 46 49 53 55 55 54 53 53 53 53 51 47 43 40 41 41 42 41 41 41 41 41 43 46 47 48 48 47 47 46 46 46 45 45 45 45 45 44 44
42 41 40 40 40 40 41 42 43 44 44 45 46 47 48 49 49 49 48 48 47 47 46 46 45 44 44 45 45 45 46 48 51 53 54 53 53 53 53 52 50 46 42 40 41 41 41 41 40 40 40 40 43 45 48 48 48 48 47 46 46 46 45 45 45 45 45 45 44
42 41 40 40 40 40 41 42 42 43 43 44 45 46 48 49 49 48 48 48 47 47 46 46 44 44 43 43 44 44 44 46 49 51 52 53 53 53 52 50 49 45 42 40 41 40 40 40 40 39 39 40 43 46 48 48 48 47 47 46 46 46 46 46 46 46 46 45 45
41 41 41 40 40 40 40 40 41 41 42 43 44 46 47 49 49 48 48 47 47 47 47 46 45 44 43 43 43 43 43 44 47 50 52 52 52 52 51 49 48 44 41 40 40 40 39 39 39 39 39 40 44 47 48 48 47 47 46 46 46 46 45 46 46 46 46 46 46
40 40 40 40 40 39 39 40 40 40 41 42 43 44 46 48 48 48 47 47 47 47 47 46 45 44 44 43 43 43 43 44 46 49 50 51 52 51 50 49 47 43 40 40 39 39 39 39 39 39 40 41 44 47 48 47 47 46 46 45 45 45 45 45 46 46 46 46 46
39 39 38 38 39 39 39 39 40 40 41 42 42 43 44 46 47 48 48 47 46 46 45 45 44 44 43 43 43 42 42 43 45 47 49 50 51 50 49 48 46 42 39 39 39 38 38 38 39 39 41 43 45 46 46 46 46 46 45 45 45 45 45 45 45 45 45 45 45
39 38 38 38 39 39 39 39 39 40 40 41 42 43 44 45 47 48 48 47 46 45 44 44 43 43 42 42 42 42 42 43 44 46 48 49 50 50 49 47 45 42 39 39 38 38 38 39 39 40 42 44 45 46 46 45 45 45 44 44 44 44 44 44 44 44 44 44 44
40 39 38 38 39 39 39 39 39 40 40 42 43 44 45 46 47 47 47 45 45 44 43 43 43 42 42 42 42 42 42 42 43 45 47 49 50 50 49 46 44 42 40 38 38 38 38 39 39 40 42 44 45 45 45 44 44 44 43 43 43 44 44 44 44 44 43 43 41
41 40 39 39 39 39 39 40 39 40 40 42 43 44 45 46 47 47 46 45 45 44 43 43 42 42 42 42 41 40 40 40 41 43 46 49 50 49 47 45 43 41 40 38 38 38 39 39 40 40 42 44 45 45 45 44 43 43 42 42 42 42 43 43 43 43 42 41 39
41 40 40 39 39 39 40 40 41 41 42 43 43 44 45 46 46 47 46 45 45 44 43 42 42 42 41 40 40 39 38 38 40 42 45 48 49 47 45 44 43 41 40 38 38 38 39 39 40 40 42 44 45 45 45 44 42 42 41 41 41 41 41 42 42 42 41 40 38
40 40 40 40 40 40 41 41 42 42 42 43 43 44 44 45 46 46 46 44 44 43 43 42 42 41 41 39 39 38 37 37 37 40 44 47 47 46 44 43 42 41 40 38 38 38 39 39 40 40 42 43 45 45 44 43 41 41 40 41 40 40 40 40 40 40 40 39 39
MSLP
1011.74 1011.46 1011.18 1010.86 1010.58 1010.34 1010.10 1009.82 1009.62 1009.58 1009.50 1009.22 1008.82 1008.54 1008.38 1008.22 1007.90 1007.74 1007.70 1007.70 1007.66 1007.66 1007.74 1007.90 1008.02 1008.14 1008.22 1008.30 1008.30 1008.34 1008.42 1008.50 1008.62 1008.78 1008.86 1008.94 1009.02 1009.10 1009.26 1009.46 1009.62 1009.78 1009.98 1010.22 1010.50 1010.74 1010.94 1011.10 1011.10 1011.10 1011.14 1011.34 1011.58 1011.62 1011.54 1011.46 1011.58 1011.90 1012.34 1012.78 1012.94 1012.94 1013.10 1013.46 1013.74 1013.94 1014.06 1014.10 1014.22
1011.54 1011.34 1011.10 1010.86 1010.54 1010.22 1009.94 1009.70 1009.50 1009.34 1009.26 1009.10 1008.82 1008.62 1008.50 1008.30 1008.02 1007.78 1007.74 1007.66 1007.62 1007.62 1007.70 1007.86 1008.02 1008.06 1008.06 1008.06 1008.14 1008.22 1008.30 1008.46 1008.62 1008.78 1008.94 1008.98 1009.06 1009.18 1009.34 1009.50 1009.70 1009.90 1010.06 1010.26 1010.54 1010.86 1011.10 1011.30 1011.30 1011.30 1011.30 1011.34 1011.66 1012.02 1012.14 1011.90 1011.78 1012.02 1012.42 1012.82 1013.02 1012.98 1013.06 1013.38 1013.86 1014.14 1014.22 1014.22 1014.34
1011.38 1011.22 1011.02 1010.78 1010.42 1010.06 1009.78 1009.50 1009.22 1009.02 1008.86 1008.74 1008.62 1008.50 1008.34 1008.22 1007.94 1007.78 1007.66 1007.62 1007.58 1007.62 1007.70 1007.86 1008.06 1008.06 1008.02 1007.94 1008.02 1008.06 1008.18 1008.30 1008.46 1008.62 1008.78 1008.94 1009.06 1009.18 1009.34 1009.50 1009.70 1009.90 1010.10 1010.30 1010.54 1010.86 1011.14 1011.34 1011.50 1011.58 1011.50 1011.42 1011.58 1011.98 1012.38 1012.54 1012.42 1012.50 1012.78 1013.18 1013.38 1013.34 1013.34 1013.50 1013.90 1014.26 1014.38 1014.42 1014.54
1011.22 1011.02 1010.78 1010.54 1010.26 1009.98 1009.66 1009.38 1009.14 1008.94 1008.70 1008.54 1008.46 1008.34 1008.14 1007.94 1007.82 1007.74 1007.62 1007.58 1007.58 1007.58 1007.58 1007.74 1007.94 1008.06 1008.02 1007.98 1007.94 1007.94 1008.06 1008.22 1008.30 1008.46 1008.62 1008.78 1008.98 1009.14 1009.30 1009.46 1009.62 1009.86 1010.06 1010.22 1010.50 1010.78 1011.06 1011.34 1011.62 1011.74 1011.74 1011.66 1011.58 1011.86 1012.34 1012.74 1012.90 1013.06 1013.30 1013.58 1013.82 1013.90 1013.82 1013.78 1013.94 1014.26 1014.54 1014.66 1014.82
1010.98 1010.82 1010.62 1010.38 1010.18 1009.90 1009.62 1009.34 1009.14 1008.90 1008.66 1008.50 1008.34 1008.30 1008.14 1007.86 1007.74 1007.66 1007.62 1007.62 1007.62 1007.54 1007.50 1007.58 1007.82 1007.98 1008.02 1007.98 1007.94 1007.90 1007.98 1008.06 1008.22 1008.34 1008.46 1008.66 1008.90 1009.06 1009.26 1009.42 1009.58 1009.78 1010.02 1010.22 1010.38 1010.62 1010.94 1011.22 1011.58 1011.82 1011.90 1011.86 1011.78 1011.94 1012.30 1012.62 1012.98 1013.34 1013.62 1013.90 1014.10 1014.26 1014.34 1014.34 1014.34 1014.46 1014.66 1014.90 1015.10
1010.78 1010.58 1010.38 1010.22 1010.02 1009.78 1009.58 1009.30 1009.06 1008.82 1008.62 1008.46 1008.34 1008.22 1008.06 1007.86 1007.58 1007.50 1007.58 1007.58 1007.62 1007.58 1007.54 1007.62 1007.78 1007.90 1007.98 1007.94 1007.90 1007.90 1007.98 1008.06 1008.18 1008.22 1008.34 1008.58 1008.78 1009.02 1009.22 1009.42 1009.58 1009.78 1010.06 1010.26 1010.46 1010.62 1010.82 1011.06 1011.42 1011.78 1012.02 1012.06 1012.06 1012.18 1012.34 1012.62 1012.94 1013.34 1013.70 1014.02 1014.22 1014.50 1014.70 1014.82 1014.78 1014.78 1014.90 1015.14 1015.46
1010.50 1010.30 1010.14 1009.94 1009.78 1009.54 1009.34 1009.14 1008.90 1008.70 1008.50 1008.34 1008.22 1008.06 1007.94 1007.78 1007.54 1007.38 1007.38 1007.50 1007.58 1007.58 1007.62 1007.62 1007.66 1007.74 1007.82 1007.86 1007.90 1007.90 1007.94 1008.02 1008.10 1008.22 1008.30 1008.46 1008.66 1008.90 1009.10 1009.34 1009.54 1009.78 1010.02 1010.22 1010.50 1010.74 1010.86 1010.98 1011.26 1011.66 1011.98 1012.10 1012.22 1012.30 1012.42 1012.66 1012.98 1013.34 1013.70 1013.98 1014.30 1014.62 1014.90 1015.10 1015.14 1015.10 1015.18 1015.42 1015.78
1010.30 1010.06 1009.86 1009.70 1009.50 1009.30 1009.06 1008.90 1008.70 1008.50 1008.34 1008.22 1007.98 1007.82 1007.74 1007.70 1007.50 1007.30 1007.22 1007.34 1007.42 1007.50 1007.50 1007.50 1007.46 1007.50 1007.62 1007.70 1007.78 1007.82 1007.86 1007.90 1008.06 1008.18 1008.22 1008.34 1008.50 1008.78 1008.98 1009.22 1009.38 1009.62 1009.86 1010.10 1010.34 1010.62 1010.82 1010.98 1011.18 1011.50 1011.78 1011.98 1012.10 1012.22 1012.34 1012.54 1012.86 1013.22 1013.62 1013.98 1014.38 1014.74 1015.02 1015.26 1015.30 1015.30 1015.34 1015.62 1015.98
1010.06 1009.82 1009.62 1009.42 1009.22 1009.02 1008.78 1008.58 1008.42 1008.26 1008.10 1007.94 1007.82 1007.66 1007.54 1007.50 1007.34 1007.22 1007.14 1007.14 1007.22 1007.30 1007.34 1007.30 1007.26 1007.30 1007.38 1007.50 1007.58 1007.66 1007.78 1007.86 1007.98 1008.06 1008.18 1008.26 1008.38 1008.58 1008.82 1009.02 1009.22 1009.46 1009.70 1009.90 1010.06 1010.34 1010.58 1010.82 1011.10 1011.38 1011.62 1011.78 1011.90 1011.98 1012.06 1012.22 1012.58 1013.06 1013.58 1014.06 1014.50 1014.90 1015.18 1015.34 1015.34 1015.34 1015.50 1015.78 1016.06
1009.94 1009.66 1009.42 1009.18 1008.94 1008.74 1008.54 1008.34 1008.14 1007.98 1007.86 1007.74 1007.62 1007.54 1007.46 1007.42 1007.30 1007.14 1007.02 1006.98 1007.06 1007.18 1007.18 1007.06 1007.10 1007.18 1007.22 1007.34 1007.46 1007.58 1007.66 1007.78 1007.86 1007.98 1008.10 1008.18 1008.26 1008.42 1008.62 1008.78 1009.02 1009.26 1009.50 1009.74 1009.94 1010.18 1010.34 1010.58 1010.94 1011.30 1011.58 1011.66 1011.66 1011.66 1011.74 1011.90 1012.30 1012.86 1013.54 1014.18 1014.62 1014.94 1015.18 1015.38 1015.42 1015.50 1015.62 1015.82 1016.06
1009.90 1009.62 1009.34 1009.06 1008.78 1008.50 1008.34 1008.10 1007.90 1007.70 1007.58 1007.46 1007.34 1007.34 1007.34 1007.26 1007.18 1007.02 1006.90 1006.90 1006.94 1006.98 1006.94 1006.90 1006.90 1006.94 1007.06 1007.18 1007.30 1007.42 1007.54 1007.66 1007.74 1007.86 1007.98 1008.06 1008.22 1008.34 1008.46 1008.58 1008.78 1008.98 1009.26 1009.54 1009.78 1010.06 1010.22 1010.42 1010.74 1011.06 1011.38 1011.58 1011.58 1011.50 1011.54 1011.78 1012.18 1012.78 1013.50 1014.14 1014.58 1014.94 1015.22 1015.46 1015.62 1015.74 1015.86 1016.06 1016.26
1009.82 1009.50 1009.22 1008.94 1008.62 1008.34 1008.10 1007.86 1007.62 1007.42 1007.30 1007.22 1007.14 1007.10 1007.10 1007.10 1006.98 1006.86 1006.78 1006.78 1006.78 1006.78 1006.74 1006.70 1006.66 1006.70 1006.78 1006.98 1007.10 1007.26 1007.46 1007.54 1007.62 1007.74 1007.86 1007.94 1008.06 1008.22 1008.34 1008.46 1008.62 1008.78 1009.06 1009.34 1009.58 1009.82 1010.06 1010.30 1010.50 1010.78 1011.10 1011.34 1011.38 1011.42 1011.50 1011.78 1012.22 1012.82 1013.46 1014.06 1014.54 1014.94 1015.30 1015.58 1015.82 1016.02 1016.18 1016.34 1016.50
1009.78 1009.46 1009.10 1008.78 1008.50 1008.22 1007.90 1007.62 1007.38 1007.22 1007.06 1007.02 1006.94 1006.90 1006.86 1006.86 1006.78 1006.66 1006.58 1006.54 1006.50 1006.54 1006.58 1006.58 1006.50 1006.50 1006.62 1006.74 1006.86 1007.02 1007.22 1007.38 1007.50 1007.66 1007.78 1007.86 1007.98 1008.06 1008.22 1008.34 1008.50 1008.66 1008.90 1009.14 1009.34 1009.62 1009.86 1010.14 1010.34 1010.50 1010.78 1010.94 1011.06 1011.26 1011.50 1011.78 1012.22 1012.78 1013.34 1013.90 1014.38 1014.82 1015.22 1015.58 1015.86 1016.10 1016.34 1016.50 1016.62
1009.70 1009.34 1009.06 1008.70 1008.42 1008.10 1007.78 1007.46 1007.18 1006.98 1006.82 1006.78 1006.70 1006.66 1006.62 1006.58 1006.54 1006.50 1006.34 1006.22 1006.26 1006.30 1006.34 1006.42 1006.38 1006.34 1006.38 1006.50 1006.62 1006.78 1006.94 1007.14 1007.34 1007.54 1007.66 1007.78 1007.82 1007.90 1008.06 1008.22 1008.38 1008.54 1008.78 1009.02 1009.22 1009.42 1009.66 1009.94 1010.18 1010.34 1010.46 1010.62 1010.82 1011.06 1011.34 1011.74 1012.18 1012.62 1013.18 1013.66 1014.14 1014.62 1015.02 1015.38 1015.74 1016.02 1016.22 1016.46 1016.62
1009.58 1009.26 1008.94 1008.66 1008.34 1008.02 1007.66 1007.34 1006.98 1006.74 1006.62 1006.54 1006.50 1006.50 1006.46 1006.34 1006.30 1006.26 1006.14 1006.02 1005.98 1006.06 1006.14 1006.22 1006.22 1006.22 1006.22 1006.34 1006.38 1006.50 1006.62 1006.82 1007.06 1007.34 1007.50 1007.62 1007.66 1007.74 1007.82 1008.02 1008.22 1008.38 1008.62 1008.86 1009.10 1009.34 1009.54 1009.78 1010.02 1010.18 1010.30 1010.46 1010.66 1010.94 1011.22 1011.62 1012.06 1012.54 1012.98 1013.42 1013.86 1014.34 1014.78 1015.18 1015.50 1015.82 1016.06 1016.30 1016.54
1009.46 1009.18 1008.90 1008.62 1008.34 1007.98 1007.62 1007.26 1006.90 1006.62 1006.42 1006.30 1006.26 1006.26 1006.22 1006.18 1006.10 1006.06 1005.90 1005.78 1005.78 1005.82 1005.90 1005.98 1005.98 1006.06 1006.10 1006.22 1006.26 1006.34 1006.42 1006.58 1006.78 1007.06 1007.22 1007.34 1007.42 1007.50 1007.62 1007.82 1008.02 1008.22 1008.50 1008.74 1008.98 1009.22 1009.50 1009.70 1009.90 1010.06 1010.22 1010.38 1010.58 1010.82 1011.14 1011.50 1011.94 1012.38 1012.82 1013.26 1013.70 1014.14 1014.54 1014.94 1015.30 1015.62 1015.90 1016.18 1016.42
1009.30 1009.06 1008.78 1008.54 1008.22 1007.90 1007.62 1007.26 1006.90 1006.54 1006.26 1006.06 1006.02 1006.02 1005.98 1005.90 1005.90 1005.82 1005.70 1005.58 1005.54 1005.58 1005.62 1005.66 1005.74 1005.82 1005.90 1006.02 1006.14 1006.22 1006.22 1006.34 1006.54 1006.74 1006.94 1007.06 1007.18 1007.30 1007.46 1007.62 1007.82 1008.06 1008.34 1008.58 1008.86 1009.14 1009.42 1009.66 1009.86 1010.06 1010.22 1010.34 1010.58 1010.78 1011.06 1011.42 1011.78 1012.22 1012.70 1013.14 1013.58 1013.98 1014.38 1014.78 1015.10 1015.46 1015.74 1016.02 1016.22
1009.18 1008.94 1008.66 1008.38 1008.06 1007.82 1007.54 1007.22 1006.86 1006.50 1006.22 1005.98 1005.86 1005.78 1005.74 1005.74 1005.66 1005.58 1005.46 1005.34 1005.26 1005.26 1005.34 1005.42 1005.50 1005.58 1005.62 1005.78 1005.90 1006.02 1006.06 1006.14 1006.26 1006.42 1006.58 1006.74 1006.94 1007.06 1007.26 1007.50 1007.70 1007.90 1008.22 1008.46 1008.74 1009.02 1009.30 1009.62 1009.82 1010.02 1010.22 1010.34 1010.58 1010.78 1011.06 1011.34 1011.70 1012.10 1012.54 1012.98 1013.46 1013.90 1014.30 1014.62 1014.98 1015.26 1015.54 1015.78 1015.98
1009.06 1008.78 1008.54 1008.26 1007.98 1007.74 1007.46 1007.14 1006.78 1006.46 1006.14 1005.90 1005.70 1005.58 1005.50 1005.50 1005.42 1005.34 1005.22 1005.06 1004.94 1004.94 1005.02 1005.14 1005.22 1005.30 1005.34 1005.50 1005.62 1005.78 1005.82 1005.90 1006.02 1006.14 1006.34 1006.50 1006.70 1006.90 1007.14 1007.38 1007.62 1007.86 1008.10 1008.34 1008.62 1008.94 1009.22 1009.50 1009.74 1009.94 1010.18 1010.34 1010.54 1010.78 1011.06 1011.34 1011.66 1012.06 1012.46 1012.86 1013.34 1013.78 1014.14 1014.50 1014.78 1015.06 1015.30 1015.50 1015.74
1008.98 1008.74 1008.46 1008.22 1007.98 1007.78 1007.50 1007.14 1006.78 1006.42 1006.06 1005.78 1005.62 1005.42 1005.26 1005.22 1005.18 1005.06 1004.94 1004.74 1004.66 1004.62 1004.70 1004.82 1004.90 1004.94 1005.06 1005.18 1005.34 1005.50 1005.62 1005.70 1005.82 1005.94 1006.14 1006.34 1006.50 1006.74 1006.98 1007.30 1007.54 1007.78 1008.06 1008.26 1008.54 1008.82 1009.10 1009.38 1009.62 1009.86 1010.06 1010.22 1010.50 1010.78 1011.06 1011.38 1011.70 1012.06 1012.46 1012.82 1013.22 1013.62 1013.94 1014.26 1014.54 1014.82 1015.06 1015.34 1015.58
1008.90 1008.66 1008.42 1008.22 1008.02 1007.78 1007.54 1007.22 1006.90 1006.50 1006.06 1005.78 1005.50 1005.26 1005.06 1004.94 1004.90 1004.78 1004.62 1004.46 1004.38 1004.38 1004.42 1004.50 1004.50 1004.58 1004.70 1004.86 1005.06 1005.26 1005.42 1005.54 1005.66 1005.78 1005.90 1006.10 1006.34 1006.54 1006.82 1007.14 1007.42 1007.66 1007.90 1008.10 1008.38 1008.66 1008.94 1009.22 1009.50 1009.70 1009.90 1010.18 1010.46 1010.78 1011.06 1011.42 1011.78 1012.10 1012.46 1012.82 1013.14 1013.46 1013.78 1014.06 1014.34 1014.62 1014.94 1015.22 1015.50
1008.82 1008.62 1008.46 1008.26 1008.06 1007.82 1007.58 1007.30 1006.94 1006.58 1006.14 1005.70 1005.34 1005.06 1004.86 1004.66 1004.58 1004.50 1004.34 1004.26 1004.18 1004.14 1004.14 1004.22 1004.18 1004.22 1004.34 1004.54 1004.78 1005.02 1005.22 1005.34 1005.50 1005.62 1005.74 1005.90 1006.14 1006.38 1006.66 1006.94 1007.22 1007.46 1007.70 1007.94 1008.22 1008.50 1008.78 1009.10 1009.34 1009.62 1009.82 1010.14 1010.42 1010.74 1011.06 1011.42 1011.78 1012.10 1012.46 1012.78 1013.06 1013.34 1013.70 1014.02 1014.30 1014.58 1014.86 1015.14 1015.46
1008.78 1008.62 1008.50 1008.30 1008.06 1007.78 1007.50 1007.22 1006.90 1006.50 1006.06 1005.62 1005.22 1004.90 1004.62 1004.42 1004.22 1004.14 1004.10 1004.10 1003.98 1003.86 1003.82 1003.90 1003.90 1003.98 1004.10 1004.26 1004.50 1004.78 1004.94 1005.14 1005.30 1005.42 1005.58 1005.78 1005.94 1006.22 1006.50 1006.78 1007.02 1007.22 1007.46 1007.70 1007.94 1008.26 1008.62 1008.94 1009.30 1009.62 1009.86 1010.10 1010.42 1010.78 1011.06 1011.42 1011.74 1012.06 1012.34 1012.66 1013.02 1013.30 1013.62 1013.94 1014.22 1014.54 1014.86 1015.18 1015.46
1008.70 1008.54 1008.42 1008.22 1007.94 1007.66 1007.34 1007.06 1006.70 1006.34 1005.90 1005.46 1005.06 1004.66 1004.38 1004.10 1003.90 1003.78 1003.78 1003.90 1003.82 1003.62 1003.54 1003.62 1003.70 1003.82 1003.94 1004.06 1004.30 1004.50 1004.74 1004.90 1005.06 1005.18 1005.34 1005.58 1005.78 1006.02 1006.26 1006.50 1006.78 1006.98 1007.22 1007.46 1007.74 1008.06 1008.42 1008.82 1009.22 1009.54 1009.82 1010.10 1010.46 1010.78 1011.14 1011.46 1011.74 1011.98 1012.26 1012.58 1012.90 1013.22 1013.54 1013.90 1014.22 1014.50 1014.86 1015.18 1015.50
1008.54 1008.38 1008.22 1008.02 1007.74 1007.46 1007.14 1006.82 1006.46 1006.06 1005.62 1005.22 1004.86 1004.50 1004.18 1003.82 1003.58 1003.50 1003.62 1003.70 1003.58 1003.46 1003.34 1003.34 1003.50 1003.62 1003.78 1003.90 1004.14 1004.34 1004.50 1004.62 1004.74 1004.94 1005.10 1005.34 1005.58 1005.82 1006.06 1006.30 1006.50 1006.78 1007.06 1007.34 1007.70 1008.02 1008.30 1008.62 1008.94 1009.30 1009.66 1010.06 1010.42 1010.82 1011.18 1011.50 1011.74 1012.02 1012.26 1012.54 1012.82 1013.18 1013.50 1013.90 1014.22 1014.58 1014.90 1015.18 1015.50
1008.34 1008.18 1007.94 1007.74 1007.46 1007.14 1006.82 1006.50 1006.18 1005.78 1005.42 1005.06 1004.66 1004.30 1003.90 1003.54 1003.30 1003.22 1003.34 1003.42 1003.38 1003.34 1003.30 1003.22 1003.34 1003.50 1003.62 1003.78 1003.98 1004.18 1004.34 1004.42 1004.50 1004.62 1004.82 1005.06 1005.34 1005.58 1005.78 1005.98 1006.22 1006.58 1006.94 1007.34 1007.74 1008.06 1008.30 1008.54 1008.82 1009.10 1009.46 1009.86 1010.30 1010.74 1011.14 1011.50 1011.82 1012.06 1012.34 1012.62 1012.86 1013.14 1013.50 1013.86 1014.22 1014.62 1014.94 1015.30 1015.66
1008.10 1007.90 1007.66 1007.38 1007.10 1006.78 1006.46 1006.14 1005.82 1005.50 1005.22 1004.82 1004.46 1004.06 1003.66 1003.30 1003.02 1002.94 1003.02 1003.18 1003.30 1003.30 1003.22 1003.14 1003.22 1003.34 1003.50 1003.62 1003.82 1003.98 1004.10 1004.22 1004.22 1004.34 1004.58 1004.82 1005.06 1005.34 1005.50 1005.78 1006.06 1006.50 1006.94 1007.34 1007.70 1008.02 1008.26 1008.54 1008.82 1009.06 1009.34 1009.66 1010.14 1010.58 1011.02 1011.46 1011.82 1012.14 1012.42 1012.70 1012.94 1013.22 1013.50 1013.78 1014.18 1014.58 1014.98 1015.34 1015.78
1007.82 1007.62 1007.38 1007.14 1006.82 1006.46 1006.06 1005.78 1005.50 1005.18 1004.90 1004.58 1004.22 1003.78 1003.42 1003.06 1002.78 1002.66 1002.74 1002.94 1003.06 1003.14 1003.14 1003.10 1003.22 1003.34 1003.54 1003.62 1003.74 1003.82 1003.90 1003.94 1003.98 1004.10 1004.34 1004.66 1004.90 1005.10 1005.34 1005.62 1006.02 1006.50 1006.94 1007.34 1007.70 1007.98 1008.26 1008.54 1008.78 1009.02 1009.26 1009.58 1010.02 1010.50 1010.94 1011.34 1011.78 1012.14 1012.50 1012.78 1013.06 1013.30 1013.54 1013.82 1014.18 1014.54 1014.94 1015.34 1015.78
1007.54 1007.34 1007.10 1006.86 1006.54 1006.18 1005.78 1005.46 1005.18 1004.86 1004.58 1004.26 1003.90 1003.54 1003.14 1002.78 1002.50 1002.38 1002.50 1002.62 1002.78 1002.94 1003.02 1003.10 1003.34 1003.54 1003.62 1003.58 1003.62 1003.70 1003.78 1003.78 1003.78 1003.90 1004.18 1004.50 1004.78 1004.98 1005.22 1005.50 1006.02 1006.54 1007.02 1007.34 1007.70 1007.98 1008.26 1008.54 1008.82 1009.06 1009.26 1009.58 1009.98 1010.42 1010.90 1011.26 1011.62 1012.02 1012.38 1012.74 1013.02 1013.30 1013.54 1013.82 1014.18 1014.54 1014.94 1015.22 1015.62
1007.30 1007.06 1006.82 1006.58 1006.30 1005.94 1005.58 1005.22 1004.86 1004.58 1004.34 1004.06 1003.70 1003.30 1002.82 1002.46 1002.22 1002.14 1002.22 1002.34 1002.50 1002.62 1002.78 1003.06 1003.50 1003.66 1003.62 1003.42 1003.50 1003.70 1003.78 1003.70 1003.62 1003.70 1003.94 1004.26 1004.54 1004.82 1005.14 1005.50 1006.06 1006.58 1007.06 1007.38 1007.66 1007.98 1008.30 1008.58 1008.86 1009.10 1009.34 1009.62 1009.90 1010.34 1010.78 1011.14 1011.50 1011.86 1012.22 1012.62 1012.94 1013.22 1013.50 1013.78 1014.14 1014.46 1014.78 1015.06 1015.42
1007.02 1006.78 1006.50 1006.30 1006.06 1005.74 1005.34 1005.02 1004.66 1004.38 1004.10 1003.86 1003.46 1003.02 1002.54 1002.14 1001.86 1001.82 1001.90 1002.06 1002.22 1002.42 1002.62 1002.94 1003.34 1003.62 1003.66 1003.50 1003.62 1003.82 1003.90 1003.78 1003.62 1003.62 1003.82 1004.10 1004.38 1004.70 1005.10 1005.54 1006.10 1006.66 1007.14 1007.42 1007.70 1007.98 1008.34 1008.62 1008.90 1009.22 1009.46 1009.66 1009.94 1010.26 1010.62 1010.98 1011.34 1011.70 1012.06 1012.46 1012.78 1013.14 1013.42 1013.74 1014.02 1014.30 1014.58 1014.90 1015.22
1006.74 1006.50 1006.22 1005.94 1005.74 1005.46 1005.14 1004.82 1004.50 1004.22 1003.90 1003.62 1003.22 1002.78 1002.26 1001.78 1001.58 1001.54 1001.66 1001.86 1002.02 1002.22 1002.50 1002.78 1003.18 1003.58 1003.78 1003.70 1003.74 1003.90 1003.98 1003.94 1003.78 1003.70 1003.86 1004.10 1004.38 1004.70 1005.10 1005.62 1006.22 1006.74 1007.22 1007.50 1007.74 1008.02 1008.34 1008.66 1008.94 1009.26 1009.50 1009.78 1009.94 1010.22 1010.54 1010.90 1011.26 1011.62 1012.02 1012.38 1012.78 1013.06 1013.38 1013.70 1013.94 1014.22 1014.50 1014.78 1015.06
1006.50 1006.26 1005.98 1005.70 1005.38 1005.10 1004.86 1004.62 1004.30 1003.98 1003.66 1003.34 1002.98 1002.50 1001.98 1001.54 1001.30 1001.30 1001.46 1001.62 1001.78 1001.98 1002.22 1002.50 1002.94 1003.34 1003.62 1003.70 1003.74 1003.86 1004.02 1004.06 1003.94 1003.94 1004.06 1004.22 1004.46 1004.78 1005.22 1005.78 1006.34 1006.86 1007.26 1007.54 1007.78 1008.06 1008.38 1008.78 1009.06 1009.34 1009.58 1009.86 1010.02 1010.22 1010.50 1010.86 1011.26 1011.66 1012.06 1012.42 1012.78 1013.10 1013.34 1013.62 1013.90 1014.18 1014.46 1014.74 1015.02
1006.34 1006.06 1005.74 1005.42 1005.10 1004.82 1004.58 1004.34 1004.06 1003.78 1003.42 1003.06 1002.70 1002.22 1001.78 1001.34 1001.06 1001.02 1001.14 1001.34 1001.50 1001.66 1001.90 1002.18 1002.62 1003.02 1003.34 1003.50 1003.62 1003.78 1003.98 1004.22 1004.18 1004.22 1004.30 1004.46 1004.62 1004.94 1005.34 1005.82 1006.38 1006.98 1007.38 1007.62 1007.86 1008.18 1008.50 1008.82 1009.14 1009.38 1009.62 1009.90 1010.06 1010.26 1010.54 1010.86 1011.22 1011.62 1012.06 1012.42 1012.78 1013.10 1013.42 1013.66 1013.90 1014.22 1014.50 1014.78 1015.06
1006.22 1005.90 1005.54 1005.22 1004.90 1004.58 1004.30 1004.02 1003.78 1003.50 1003.14 1002.78 1002.38 1002.02 1001.62 1001.14 1000.86 1000.74 1000.82 1001.02 1001.18 1001.38 1001.62 1001.98 1002.42 1002.78 1003.06 1003.26 1003.42 1003.62 1003.94 1004.22 1004.34 1004.38 1004.50 1004.66 1004.82 1005.10 1005.46 1005.90 1006.50 1007.06 1007.50 1007.66 1007.98 1008.26 1008.58 1008.94 1009.18 1009.46 1009.70 1009.90 1010.06 1010.34 1010.62 1010.94 1011.30 1011.66 1012.06 1012.42 1012.78 1013.14 1013.50 1013.78 1014.06 1014.30 1014.58 1014.86 1015.10
1006.06 1005.74 1005.38 1005.02 1004.66 1004.34 1004.06 1003.74 1003.50 1003.18 1002.78 1002.42 1002.10 1001.86 1001.50 1001.02 1000.66 1000.50 1000.50 1000.70 1000.94 1001.22 1001.50 1001.90 1002.30 1002.62 1002.86 1003.06 1003.30 1003.58 1003.90 1004.22 1004.34 1004.50 1004.66 1004.86 1004.98 1005.22 1005.58 1006.02 1006.62 1007.22 1007.62 1007.78 1008.06 1008.34 1008.62 1008.94 1009.22 1009.42 1009.62 1009.86 1010.10 1010.38 1010.70 1011.02 1011.38 1011.78 1012.10 1012.50 1012.82 1013.22 1013.54 1013.82 1014.10 1014.42 1014.70 1014.94 1015.22
1005.86 1005.58 1005.22 1004.86 1004.42 1004.06 1003.78 1003.50 1003.22 1002.90 1002.50 1002.18 1001.86 1001.58 1001.26 1000.86 1000.46 1000.22 1000.26 1000.50 1000.78 1001.06 1001.34 1001.74 1002.10 1002.42 1002.66 1002.94 1003.22 1003.58 1003.90 1004.18 1004.38 1004.58 1004.78 1004.94 1005.06 1005.34 1005.66 1006.18 1006.78 1007.34 1007.74 1007.90 1008.14 1008.38 1008.66 1008.90 1009.18 1009.38 1009.62 1009.82 1010.14 1010.50 1010.78 1011.14 1011.50 1011.86 1012.22 1012.62 1012.94 1013.30 1013.62 1013.98 1014.30 1014.58 1014.82 1015.06 1015.30
1005.66 1005.38 1005.06 1004.66 1004.26 1003.90 1003.58 1003.30 1002.94 1002.62 1002.26 1001.90 1001.58 1001.26 1000.98 1000.62 1000.30 1000.10 1000.10 1000.34 1000.58 1000.86 1001.22 1001.62 1001.90 1002.22 1002.54 1002.86 1003.18 1003.54 1003.90 1004.22 1004.42 1004.62 1004.78 1004.98 1005.10 1005.34 1005.78 1006.30 1006.94 1007.46 1007.82 1008.06 1008.22 1008.42 1008.66 1008.90 1009.14 1009.34 1009.50 1009.78 1010.10 1010.46 1010.82 1011.18 1011.54 1011.94 1012.34 1012.70 1013.06 1013.46 1013.78 1014.10 1014.42 1014.74 1014.98 1015.26 1015.50
1005.50 1005.22 1004.94 1004.50 1004.10 1003.74 1003.34 1003.06 1002.70 1002.38 1002.06 1001.70 1001.38 1001.10 1000.86 1000.58 1000.22 1000.02 1000.06 1000.22 1000.38 1000.66 1001.06 1001.46 1001.82 1002.18 1002.54 1002.90 1003.26 1003.62 1004.02 1004.30 1004.54 1004.70 1004.78 1004.94 1005.10 1005.38 1005.78 1006.34 1006.94 1007.50 1007.90 1008.18 1008.30 1008.46 1008.66 1008.94 1009.14 1009.34 1009.50 1009.74 1010.06 1010.42 1010.78 1011.18 1011.54 1011.94 1012.38 1012.78 1013.22 1013.58 1013.94 1014.22 1014.58 1014.86 1015.18 1015.50 1015.78
1005.34 1005.06 1004.74 1004.38 1003.94 1003.50 1003.14 1002.78 1002.38 1002.10 1001.82 1001.50 1001.22 1000.94 1000.74 1000.46 1000.14 1000.02 1000.06 1000.22 1000.38 1000.62 1000.98 1001.34 1001.78 1002.18 1002.54 1002.94 1003.34 1003.74 1004.14 1004.50 1004.74 1004.90 1004.94 1004.98 1005.14 1005.46 1005.90 1006.42 1006.98 1007.54 1007.98 1008.26 1008.38 1008.54 1008.74 1008.98 1009.22 1009.34 1009.54 1009.74 1010.06 1010.42 1010.78 1011.14 1011.58 1011.98 1012.42 1012.86 1013.22 1013.62 1014.06 1014.38 1014.70 1015.02 1015.34 1015.74 1016.06
1005.14 1004.82 1004.50 1004.10 1003.70 1003.30 1002.90 1002.50 1002.18 1001.86 1001.62 1001.38 1001.10 1000.90 1000.62 1000.34 1000.10 1000.06 1000.18 1000.34 1000.46 1000.70 1001.02 1001.42 1001.78 1002.18 1002.62 1003.06 1003.42 1003.82 1004.22 1004.62 1004.94 1005.14 1005.22 1005.18 1005.34 1005.66 1006.10 1006.58 1007.10 1007.62 1008.06 1008.38 1008.54 1008.66 1008.82 1009.06 1009.22 1009.38 1009.54 1009.78 1010.06 1010.42 1010.78 1011.14 1011.58 1011.98 1012.38 1012.82 1013.22 1013.62 1014.02 1014.42 1014.78 1015.14 1015.50 1015.86 1016.18
Wind_Speed
14 13 12 11 10 10 10 10 10 10 11 12 12 10 8 7 7 6 5 5 5 5 4 4 4 4 5 6 7 7 8 8 8 8 9 9 9 10 10 10 10 10 10 10 9 8 7 6 5 5 5 4 3 2 3 5 8 10 11 10 8 8 9 10 9 9 10 10 8
14 14 14 13 11 10 10 10 10 10 10 11 11 10 8 7 7 6 6 5 5 4 4 4 5 6 8 9 9 10 10 10 11 10 10 10 11 11 11 10 11 11 11 11 10 8 7 7 6 6 6 6 6 4 3 3 6 8 9 10 7 7 8 9 8 8 9 9 8
14 14 14 14 13 12 11 10 11 12 13 13 12 11 10 8 7 7 6 6 5 5 5 5 5 7 9 10 10 10 11 12 12 12 11 11 12 12 12 12 13 13 12 12 11 10 8 8 6 5 5 7 8 7 5 4 4 6 7 8 5 5 6 7 8 7 7 7 8
14 14 14 14 16 16 14 12 13 14 14 13 13 12 12 10 8 7 6 6 6 6 6 6 6 7 8 9 10 11 11 12 13 13 13 12 13 13 14 14 14 14 13 13 13 12 11 10 7 5 6 8 10 9 7 5 5 5 5 5 4 4 5 6 7 7 6 6 7
15 14 13 13 16 16 15 14 14 14 14 12 12 12 12 11 9 7 6 6 6 6 7 7 7 7 8 9 11 11 12 13 13 13 13 13 13 14 14 14 14 14 14 14 14 14 14 12 8 6 6 7 7 8 8 8 7 6 5 4 4 4 4 5 6 6 6 6 6
15 15 15 14 15 16 15 14 15 15 13 12 13 13 14 12 11 9 7 7 7 7 7 8 7 8 8 10 11 11 12 12 12 12 13 14 14 14 15 15 15 14 13 14 15 15 15 13 9 8 7 7 8 8 9 10 9 8 7 6 5 5 5 5 5 5 6 7 7
17 17 17 16 16 16 15 15 15 14 13 12 14 16 17 16 14 13 11 9 8 8 8 7 8 9 10 11 11 11 12 12 12 13 14 14 15 15 16 16 16 15 15 15 15 15 14 13 10 9 8 7 8 10 12 11 10 9 8 7 6 6 6 5 5 5 7 9 9
18 18 18 18 17 17 17 17 16 15 13 12 14 17 19 20 19 17 13 10 9 8 8 8 10 11 12 12 12 12 12 13 13 13 14 14 16 17 17 17 17 17 17 17 17 16 14 12 10 10 10 8 8 10 13 15 14 13 11 9 7 6 6 6 6 7 9 11 10
18 19 19 19 18 18 18 17 17 16 15 14 16 17 19 20 20 18 14 11 10 10 9 9 12 13 14 14 13 13 13 13 14 14 14 15 17 18 17 17 18 18 18 18 18 18 16 12 11 10 10 9 10 12 15 18 17 15 13 10 8 7 6 6 8 9 10 11 10
20 20 20 19 19 19 19 18 17 17 17 17 17 18 18 18 18 17 14 10 10 10 11 11 13 14 14 15 14 14 13 13 14 15 15 16 17 18 18 17 18 18 18 17 17 17 16 12 12 11 11 10 13 15 18 19 19 17 14 9 9 9 8 7 8 9 10 10 10
22 22 21 20 20 20 19 19 17 16 16 16 17 17 17 16 17 15 13 10 10 12 13 12 14 15 15 14 14 14 14 13 14 15 16 17 18 18 19 18 19 20 19 18 17 15 14 12 14 14 14 13 14 16 18 20 20 18 15 12 11 11 10 8 8 8 8 9 9
23 23 22 21 21 21 20 19 17 16 15 16 16 16 16 16 16 15 14 12 13 13 14 14 15 16 15 13 14 14 14 14 15 16 16 18 19 19 19 20 20 20 20 19 17 15 13 14 16 17 18 16 14 15 17 20 20 19 17 16 14 13 12 11 9 8 7 8 9
23 23 23 22 22 22 21 20 17 16 15 16 16 15 15 15 16 16 15 14 14 13 13 14 15 16 15 14 15 15 15 15 16 16 16 18 19 20 20 20 21 21 20 19 17 15 15 16 18 19 19 17 15 15 18 20 20 20 19 18 17 15 14 14 12 11 10 10 10
23 23 23 23 23 22 21 20 17 15 15 16 15 15 15 15 16 15 14 14 14 13 13 13 14 14 14 15 15 16 17 17 17 18 18 18 19 20 20 20 21 20 19 17 17 17 18 18 19 20 20 19 18 18 20 20 20 20 20 20 19 18 16 16 14 13 12 12 11
23 23 23 23 23 22 20 19 17 15 14 15 14 14 14 14 15 14 13 13 14 13 12 12 12 13 14 16 17 18 18 19 19 19 19 19 20 20 21 20 21 20 19 17 17 18 19 19 20 20 20 20 20 21 21 20 20 20 20 20 19 18 17 17 16 15 14 14 13
23 23 23 23 22 22 20 19 16 15 14 14 14 13 13 14 14 14 14 14 13 12 12 13 13 13 14 16 17 18 19 19 20 21 20 20 21 21 21 21 21 20 19 18 17 17 18 19 19 19 20 20 21 21 21 21 20 20 20 19 19 18 18 17 16 16 15 15 15
23 23 22 22 22 22 21 20 18 17 16 16 15 14 14 14 14 14 14 14 12 12 13 15 14 13 13 15 16 17 18 19 20 20 21 21 21 21 21 21 20 20 19 18 18 18 18 18 18 18 19 20 20 20 21 21 20 20 20 19 18 18 18 17 17 17 17 17 16
23 23 23 22 22 22 22 22 21 20 19 19 17 15 14 14 15 14 14 14 14 14 15 16 14 14 14 15 15 16 16 18 20 20 21 21 21 21 21 20 20 19 19 18 18 18 19 18 18 18 18 19 19 19 20 20 19 20 20 19 19 19 18 18 18 17 17 17 17
23 23 23 23 22 22 23 23 23 22 21 20 18 16 15 15 16 16 15 15 16 17 17 17 15 15 15 17 17 16 16 18 20 21 21 21 21 21 20 20 19 19 19 19 19 19 19 19 18 18 18 18 18 18 18 19 19 19 20 19 19 19 19 19 18 18 17 17 16
23 23 23 22 22 22 23 23 23 23 22 20 19 18 17 17 17 18 18 17 17 18 18 18 17 16 16 18 18 18 17 16 20 21 21 21 21 21 20 20 19 19 19 19 19 19 19 19 18 18 18 18 18 18 19 18 18 19 19 18 19 19 19 19 18 17 17 16 16
23 23 22 22 21 22 22 23 23 23 23 21 21 19 18 17 18 19 19 18 17 18 18 18 18 18 18 19 20 19 18 16 19 20 21 21 21 21 20 20 19 19 18 18 18 19 19 19 19 18 18 18 19 19 19 18 18 18 18 17 17 18 18 17 17 16 16 15 15
22 22 22 21 21 22 22 22 23 23 23 22 21 21 20 18 18 18 18 17 17 18 18 18 18 19 19 20 20 20 19 16 18 19 19 19 20 20 20 19 19 19 18 18 19 19 19 19 19 18 18 18 19 19 19 18 18 18 18 17 17 18 17 17 16 16 15 15 14
22 21 21 20 21 21 22 22 23 23 23 22 22 22 21 19 18 17 17 17 17 17 18 17 17 18 19 20 21 21 20 18 19 19 19 19 19 19 19 19 19 20 19 18 18 19 19 18 19 18 18 18 19 19 19 18 18 18 18 18 18 18 17 16 15 15 15 14 13
22 21 19 18 20 21 22 22 22 23 23 23 22 22 22 21 19 17 17 17 17 18 18 16 16 17 19 20 21 21 21 20 20 20 21 20 19 19 19 18 19 19 18 15 16 17 17 16 17 17 17 17 17 18 17 17 17 17 18 18 18 17 17 16 15 15 14 14 12
22 21 20 19 20 21 22 22 22 23 23 23 22 22 22 21 18 16 15 16 17 17 17 17 17 17 18 19 20 21 20 20 21 22 22 21 20 19 19 18 17 16 15 14 16 18 18 16 16 16 16 16 16 16 16 16 16 17 17 17 17 17 16 16 16 15 14 14 12
22 21 21 21 21 22 22 22 22 23 23 23 23 23 23 22 17 15 15 16 16 16 16 17 16 16 16 17 19 19 19 19 20 22 22 21 21 20 19 16 15 13 13 15 18 19 19 19 18 17 16 16 16 15 15 15 16 16 16 16 16 16 16 16 16 15 14 13 13
22 21 21 21 21 22 22 22 22 22 22 22 23 23 23 22 16 14 14 16 16 16 15 15 15 14 14 15 18 19 19 18 20 21 22 22 22 21 20 16 14 13 13 17 20 21 21 20 19 18 18 17 16 16 15 14 16 16 16 16 15 16 16 16 16 15 14 14 14
21 21 21 21 22 22 22 22 22 22 22 22 22 23 23 22 18 15 14 15 16 15 14 13 12 11 11 12 17 19 20 19 20 21 22 22 22 21 20 16 14 14 16 21 22 22 22 21 20 20 19 17 16 16 16 16 16 15 15 14 15 15 16 16 15 15 15 15 15
21 21 21 21 21 22 22 22 21 21 21 21 22 22 23 22 19 16 15 15 16 16 13 10 8 8 9 11 14 17 19 20 19 20 21 22 22 21 19 17 16 16 19 24 24 24 23 22 21 20 19 18 15 14 14 14 14 14 13 13 13 14 15 14 14 14 15 15 15
21 20 20 20 21 21 21 21 21 20 20 19 20 22 22 21 19 17 16 16 17 16 13 10 8 8 10 12 13 14 16 17 18 19 21 22 22 21 19 17 17 18 21 25 25 24 24 23 22 21 20 19 17 15 14 14 14 14 13 12 14 15 15 15 15 16 15 15 16
22 21 20 20 20 21 21 21 21 20 19 18 20 21 21 20 18 17 16 16 16 15 14 12 12 12 13 13 13 13 14 14 16 18 20 22 21 20 19 19 19 20 22 26 26 25 24 24 22 21 20 19 17 15 14 15 15 14 13 13 15 16 16 15 16 16 17 16 16
22 22 21 21 20 20 20 21 21 20 20 20 21 21 21 19 17 16 15 15 16 16 16 16 15 15 15 15 14 14 13 13 15 17 19 20 20 20 20 19 20 21 23 26 26 25 25 24 23 22 20 19 16 16 16 16 15 14 14 15 16 17 16 14 14 16 17 17 16
23 22 22 22 21 21 20 20 20 20 20 20 20 20 20 18 16 15 15 15 16 16 17 18 18 17 17 17 16 15 14 12 14 16 18 19 19 20 19 18 19 21 23 26 26 25 25 24 23 22 20 18 16 16 16 16 14 14 14 15 16 16 16 16 15 16 16 16 15
22 23 23 23 22 21 20 20 20 20 20 19 19 20 19 18 16 16 16 16 16 16 17 18 18 18 18 18 17 16 14 11 12 15 17 19 19 19 19 17 16 19 23 26 26 26 25 25 23 22 20 17 15 15 16 16 14 14 14 15 16 16 15 15 16 16 15 15 13
22 23 23 24 23 22 21 20 20 20 20 19 18 18 18 17 16 16 17 16 16 16 16 17 17 17 17 17 17 16 15 13 12 14 17 18 19 19 19 18 17 20 24 26 26 26 26 25 24 22 19 16 14 14 15 16 15 16 16 17 16 16 16 15 15 15 14 14 13
23 23 23 23 23 23 22 21 20 20 20 19 17 17 17 17 15 15 16 17 16 16 15 15 15 16 16 17 17 17 17 15 14 15 17 18 19 19 19 19 20 23 25 26 27 27 27 26 24 22 19 15 13 13 14 14 14 16 17 17 16 16 16 15 14 14 13 13 13
23 23 23 23 24 23 22 21 20 20 20 19 17 16 16 16 15 14 15 15 15 15 15 15 15 15 16 16 17 17 17 16 15 16 17 19 19 20 20 20 22 23 25 26 27 28 27 27 25 22 18 15 14 13 13 13 13 14 16 16 16 16 15 14 13 13 13 12 12
23 23 23 23 23 23 22 21 20 20 20 19 17 16 15 15 14 13 14 13 14 15 15 15 15 15 15 15 16 17 17 16 16 17 19 20 20 20 21 21 23 23 24 26 27 28 28 27 24 21 18 15 15 14 13 12 13 13 14 14 14 14 13 11 11 11 11 12 12
24 24 24 24 24 23 22 22 20 20 19 19 17 16 15 14 12 11 12 12 14 14 15 15 15 15 15 15 14 15 16 15 16 17 18 21 20 20 21 22 23 22 23 25 27 28 27 26 23 20 18 16 15 13 12 12 13 14 14 13 13 13 12 11 10 10 11 12 13
24 24 24 24 23 23 22 22 21 19 18 17 16 15 14 13 11 9 11 11 13 13 14 14 15 15 14 14 14 14 15 14 14 16 17 19 20 20 21 22 23 23 23 25 27 27 26 25 22 20 17 15 14 13 12 12 13 14 14 12 12 11 11 10 9 9 10 12 12
24 23 23 23 23 23 22 22 21 19 18 17 16 14 13 12 9 8 10 10 12 12 12 12 14 15 15 13 13 14 14 14 13 15 17 18 18 19 20 22 22 23 23 24 26 26 25 24 21 19 17 14 14 12 12 12 13 14 14 13 12 11 10 10 10 9 10 11 10
Wind_Direction
303 302 303 303 301 298 295 292 290 288 286 285 283 278 270 264 260 252 240 226 222 215 206 195 182 166 157 154 143 134 127 123 122 121 122 124 123 121 120 118 117 115 114 112 108 105 103 105 108 110 108 100 102 114 134 147 154 163 169 168 163 161 162 165 166 164 163 164 163
301 301 300 299 296 293 290 287 283 279 275 275 276 273 266 260 258 253 244 233 224 210 196 186 179 173 169 164 156 150 145 142 140 137 135 134 132 130 129 127 126 125 124 121 117 114 111 111 110 111 110 104 94 79 68 98 127 139 146 149 142 142 144 145 141 146 153 160 155
298 298 297 296 295 294 292 288 285 281 278 275 273 269 264 259 257 253 246 236 222 208 196 187 185 182 177 171 166 161 157 154 152 150 147 145 142 140 138 136 135 134 132 130 128 125 122 120 115 114 115 114 108 99 87 73 92 113 125 131 128 130 133 132 132 136 143 150 144
296 294 294 294 295 293 292 289 287 286 284 281 278 274 269 263 258 254 247 237 221 208 197 187 186 186 184 178 174 170 165 162 159 157 155 152 149 146 144 142 141 139 138 136 133 131 129 127 122 117 115 116 114 111 108 103 101 102 108 115 116 118 121 124 130 134 137 139 136
296 294 292 292 292 291 289 286 284 283 282 282 280 277 273 267 258 250 241 231 221 211 199 186 183 185 186 182 176 171 167 164 162 160 157 154 151 149 147 145 144 142 140 139 137 135 132 129 124 119 117 114 113 114 117 121 119 115 109 105 106 105 107 112 126 132 134 132 127
298 295 292 289 289 289 287 284 281 280 279 279 277 275 272 269 261 250 236 224 218 210 198 184 181 182 183 182 175 170 166 165 164 161 157 154 152 150 148 146 144 143 141 140 138 136 134 130 126 122 120 115 109 108 110 114 115 114 110 101 100 98 99 105 116 122 122 118 115
299 296 293 290 288 287 284 282 280 278 276 275 273 270 268 265 262 252 238 221 212 203 194 184 182 182 181 180 175 171 168 166 165 162 159 155 154 152 151 148 146 144 143 141 140 138 136 133 130 129 128 124 115 110 109 107 106 105 103 100 100 103 107 110 112 114 115 116 118
298 296 294 291 289 286 284 281 278 276 273 271 269 267 265 263 259 252 240 219 209 199 192 187 186 183 181 179 176 172 169 166 165 164 162 158 156 154 153 151 149 147 146 145 144 143 142 138 136 136 137 133 126 119 115 111 107 104 101 99 99 105 114 122 122 122 122 124 128
299 297 295 293 290 288 285 283 279 275 271 269 268 266 264 262 258 251 238 218 207 198 193 190 186 184 181 179 177 174 171 168 166 165 164 161 158 156 155 153 151 150 148 148 147 146 145 142 141 142 142 140 135 128 122 116 111 107 103 100 99 101 107 116 122 125 127 130 133
300 299 297 294 292 290 288 286 281 276 271 268 266 264 262 259 255 247 236 216 205 198 194 191 185 183 181 180 177 175 173 170 168 167 165 162 159 158 157 155 153 152 150 150 148 146 145 142 142 142 142 140 136 131 126 121 117 115 112 109 108 106 104 103 111 118 125 130 133
300 299 297 295 293 291 289 286 282 277 272 267 264 262 259 255 250 243 232 213 204 199 196 190 184 181 180 179 178 176 174 172 170 168 166 164 161 160 159 156 154 153 151 150 148 146 144 142 141 141 141 138 135 131 127 125 123 123 124 124 123 120 117 114 115 118 124 131 136
301 299 297 295 293 291 289 286 283 278 273 268 265 262 258 253 246 238 227 211 205 201 197 191 186 182 180 179 178 176 175 173 171 169 167 165 163 161 160 157 155 153 151 150 149 147 145 144 142 141 141 140 137 133 131 130 129 130 132 135 135 135 134 135 134 135 138 141 143
301 299 297 295 294 292 289 286 282 278 273 269 265 262 257 251 242 234 224 211 205 201 197 192 188 185 182 180 177 176 174 174 172 170 168 166 164 162 160 157 155 153 151 151 151 149 147 146 145 144 144 144 141 138 137 136 136 137 139 142 143 144 146 148 149 150 150 151 149
301 299 298 296 295 292 289 286 283 278 273 268 265 262 257 251 242 232 222 210 204 200 196 192 190 187 184 181 178 176 174 173 172 170 169 168 166 163 160 157 156 154 153 153 153 152 151 150 150 148 147 145 144 143 142 141 141 142 144 146 148 149 151 153 154 155 155 154 153
302 300 298 297 296 293 291 288 284 279 274 269 265 261 256 252 243 233 221 209 203 199 194 192 191 189 186 182 179 177 175 173 172 171 171 170 167 165 162 159 157 156 155 155 156 155 155 154 153 151 149 147 146 145 145 144 144 145 147 149 150 151 153 155 156 157 157 157 156
302 300 298 297 296 294 292 289 286 282 276 271 266 261 256 253 245 235 222 209 202 197 194 192 191 189 186 183 180 178 176 174 173 172 172 171 169 166 164 161 159 158 157 158 158 158 158 156 155 153 150 148 147 146 145 145 145 146 147 148 150 151 153 156 158 159 160 160 161
302 300 298 296 295 294 292 290 287 284 280 276 270 264 258 254 247 236 223 208 200 196 194 193 190 188 185 183 181 179 178 176 174 174 173 173 171 168 165 162 161 160 159 159 159 159 159 158 155 153 150 148 147 146 146 145 145 146 148 149 151 153 155 158 161 162 163 164 164
303 301 299 297 295 294 292 290 288 285 282 279 274 268 261 255 248 237 223 209 201 197 194 192 189 186 184 181 182 181 180 178 176 175 174 174 172 169 166 163 162 161 160 160 160 159 158 157 155 152 150 148 147 146 146 146 146 147 149 151 153 156 159 161 163 164 165 166 165
303 301 300 298 297 296 294 292 289 286 284 281 276 270 264 257 249 238 224 210 203 198 194 190 187 184 183 181 182 183 183 181 178 176 175 174 172 169 166 164 163 162 162 161 160 159 158 156 154 152 150 149 148 147 147 147 148 149 151 153 156 159 161 163 164 164 164 164 162
303 302 301 300 299 298 296 294 292 289 286 282 278 272 266 259 250 239 226 212 204 198 193 189 185 183 182 182 183 184 185 183 179 177 176 174 172 169 166 164 164 163 163 162 160 159 157 155 154 152 151 149 148 148 148 148 150 151 153 155 157 159 161 161 161 161 159 158 156
304 303 302 302 300 298 296 294 293 290 287 283 279 274 269 262 252 241 229 214 203 197 192 188 185 183 183 183 184 185 186 185 181 178 176 174 172 169 167 165 164 164 163 163 160 158 156 155 153 152 150 149 148 149 149 150 151 152 153 154 155 156 156 156 155 154 153 152 152
304 304 304 302 300 297 295 293 291 290 287 284 279 275 271 264 255 243 231 215 203 196 191 189 187 185 184 184 185 185 185 185 183 180 177 175 172 169 167 165 165 164 163 162 160 157 155 153 152 151 149 149 149 150 150 150 150 151 151 151 150 150 150 149 149 148 147 147 148
304 304 303 301 298 295 292 290 289 288 286 283 279 275 270 265 257 245 232 216 204 196 192 190 189 187 185 184 185 185 185 185 183 180 178 175 172 169 166 165 165 164 163 161 158 155 153 151 150 150 149 149 149 149 149 149 149 149 148 147 146 146 145 145 144 143 143 143 144
303 302 300 298 295 292 290 288 287 285 284 282 279 275 271 265 257 246 233 217 207 200 196 193 192 189 187 185 185 185 185 185 183 181 178 175 171 168 166 166 165 163 161 158 155 153 152 150 151 150 150 149 149 149 148 148 148 147 146 145 144 143 142 141 141 140 140 140 140
302 300 297 294 292 290 288 286 284 283 282 282 280 277 272 266 257 243 229 216 209 204 200 197 194 191 188 185 186 186 186 186 183 180 177 173 170 168 166 165 164 161 157 153 150 150 150 150 151 151 150 149 148 146 146 146 146 145 144 143 142 141 140 139 138 137 137 137 135
300 298 296 293 290 288 286 284 283 282 281 281 279 276 272 266 255 239 224 216 212 209 206 202 198 193 189 185 186 186 187 187 183 179 175 171 169 167 166 165 161 157 153 150 148 148 149 150 151 150 149 148 146 144 144 144 144 143 142 141 141 140 139 138 138 137 135 134 130
299 297 295 293 290 287 285 283 282 281 280 279 278 275 271 266 255 237 222 216 215 214 212 209 203 197 192 187 187 187 188 188 182 178 173 170 168 167 166 162 157 154 150 148 148 148 148 149 149 148 147 146 144 143 143 142 142 141 141 140 140 139 139 138 138 137 135 132 130
297 296 295 294 291 288 286 284 282 280 279 278 277 276 272 266 255 239 222 215 213 213 213 212 207 200 193 188 188 188 188 187 181 176 172 169 168 167 165 159 155 151 148 147 148 148 148 148 147 146 144 143 142 141 141 140 141 141 141 140 140 140 140 139 138 137 136 135 133
297 296 296 295 293 290 288 285 283 281 280 279 278 276 272 266 254 239 223 214 210 209 209 208 202 194 188 186 187 188 189 187 180 174 170 169 168 166 163 157 152 148 147 148 148 148 147 146 145 143 141 140 140 141 142 142 143 143 142 142 143 143 142 141 140 139 139 138 137
298 297 297 297 295 293 291 288 285 283 281 280 278 276 272 264 251 237 223 214 209 205 201 193 183 181 183 184 184 187 188 188 179 173 169 169 167 165 161 156 151 148 148 149 149 148 147 145 143 141 139 139 140 141 142 144 144 144 144 144 145 144 143 142 142 142 142 141 140
298 298 297 297 296 295 294 292 289 287 284 281 279 276 271 263 247 234 222 214 207 201 193 183 179 180 182 183 183 185 188 191 180 173 169 168 166 163 159 154 150 149 150 151 149 148 146 144 141 139 138 139 141 143 144 145 145 145 145 145 145 145 144 143 144 144 144 143 142
299 299 299 298 297 296 296 295 293 290 287 283 280 276 271 261 244 229 219 212 205 198 190 183 180 180 180 179 177 180 185 193 182 174 169 168 165 162 157 152 150 150 151 152 149 147 144 142 139 137 137 139 140 142 143 144 143 143 143 143 144 144 144 144 144 144 144 143 143
300 300 299 298 298 298 297 297 295 293 289 285 281 278 273 262 242 226 216 211 204 197 190 184 180 178 176 174 173 175 181 192 184 176 170 168 164 159 154 149 149 150 152 152 148 145 142 139 137 136 136 138 139 141 141 141 140 140 140 141 142 143 143 143 143 144 144 143 142
302 301 300 299 299 299 298 297 295 293 290 285 281 279 274 264 242 224 214 209 203 197 192 186 181 178 175 173 171 172 176 189 185 177 171 168 163 158 153 150 149 151 152 151 146 143 140 137 136 135 135 137 138 139 140 138 137 137 138 139 140 141 141 142 142 142 143 143 142
302 302 301 300 299 299 298 297 295 292 289 285 281 279 277 269 245 225 213 207 201 196 190 184 179 176 174 171 170 169 172 182 184 179 173 169 163 158 153 150 148 150 151 150 145 141 139 137 136 135 135 136 136 137 137 136 135 136 137 137 138 138 139 140 141 141 142 142 142
302 301 300 299 299 298 297 296 295 293 290 286 282 280 278 273 251 228 211 202 195 189 183 176 173 172 172 170 168 168 170 177 179 177 173 170 164 159 154 150 148 150 151 149 144 141 139 138 137 136 136 135 135 134 134 133 133 134 135 135 136 137 138 139 140 141 142 142 142
302 300 299 298 297 297 296 296 294 293 290 287 283 280 276 271 253 229 208 193 185 179 174 169 168 169 170 169 166 166 168 172 174 174 173 171 166 160 153 149 149 151 151 148 145 143 141 140 139 138 137 136 134 134 132 131 131 132 133 133 134 135 136 137 138 140 141 142 141
301 300 298 296 296 295 295 294 293 291 290 288 285 282 277 271 253 227 203 183 176 172 169 166 166 167 167 165 163 163 164 167 171 173 173 172 167 160 153 148 150 151 151 149 146 144 144 143 142 141 139 137 136 134 133 131 131 131 131 131 131 133 134 134 136 137 138 138 137
300 299 297 295 294 293 292 291 290 289 288 288 286 283 279 273 254 222 195 176 170 167 165 165 165 164 162 159 156 157 159 162 168 172 174 173 167 159 152 149 150 151 151 149 148 146 145 145 143 141 139 137 136 135 133 132 132 131 130 130 130 131 132 132 133 133 133 132 133
299 297 295 293 292 291 290 289 289 288 288 287 285 283 279 273 252 216 185 171 166 163 162 162 161 159 155 152 151 152 153 157 165 172 175 173 163 155 149 149 150 150 151 150 149 148 146 145 143 141 139 137 137 135 134 133 132 132 132 131 132 132 132 132 131 131 130 131 132
297 295 293 291 290 289 288 288 288 288 287 286 284 282 277 271 245 206 178 168 164 161 158 157 156 153 150 147 147 148 150 153 162 171 175 171 158 150 147 148 149 149 150 151 150 148 146 145 143 141 139 137 137 135 134 133 133 133 134 134 134 134 133 133 132 132 133 135 136